Tracking 17142 objects as of 27-May-2015
HD Live streaming from Space Station

COSMOS 2251 DEB

Track COSMOS 2251 DEB now!
10-day predictions
COSMOS 2251 DEB is classified as:


NORAD ID: 35442
Int'l Code: 1993-036AKL
Perigee: 751.1 km
Apogee: 769.8 km
Inclination: 74.0 °
Period: 99.9 minutes
Semi major axis: 7131 km
RCS: 0.0032 m2 (small)
Launch date: June 16, 1993
Source: Commonwealth of Independent States (former USSR) (CIS)

Note: This is SATELLITE DEBRIS
Your satellite tracking list
Your tracking list is empty





NASA's NSSDC Master Catalog

Two Line Element Set (TLE):
1 35442U 93036AKL 15144.41067964  .00001508  00000-0  47113-3 0  9994
2 35442 074.0435 135.4741 0013160 048.5056 106.1392 14.41573201316344

Source of the keplerian elements: AFSPC

N2YO: 469